{"data":{"norad_id":67968,"epoch":"2026-09-19T00:14:58.741440Z","epoch_age_seconds":188216,"freshness":"STALE","line1":"1 67968U 26038H   26262.01040210  .00022884  00000+0  70880-3 0  9990","line2":"2 67968  97.2865 270.3498 0002495  87.0933 273.0596 15.33452935 32869","mean_motion":15.33452935,"eccentricity":0.0002495,"inclination_deg":97.2865,"raan_deg":270.3498,"arg_perigee_deg":87.0933,"mean_anomaly_deg":273.0596,"bstar":0.0007088,"rev_number":3286,"period_min":93.905718730128,"perigee_km":463.81207328957,"apogee_km":467.2270579158,"semimajor_km":6843.6565656027,"source":"CELESTRAK","updated_at":"2026-09-20T09:00:43.730433Z"}}